SL-14 DEB, 45294

Orbit data source: Space-Track

SL-14 DEB, 45294 is space debris in LEO originally from a launch on Thu, 15 Aug 1991 UTC launched from the Plesetsk Missile And Space Complex (PKMTR). Debris objects in space refer to the collection of defunct objects orbiting the Earth. Examples of debris include non-operational satellites, rocket bodies, and fragments generated from explosions, collisions, or faulty payload assembly.

Loading next visibility...
Identifier
45294, 1991-056AG
Orbit
LEO
Country
Flag of CISCIS
Related business
Manufacturer
Unknown
Mission
Spacecraft
Bus & Motor
Unknown
Mass
Unknown
Launch date (UTC)
1991-08-15 (35 years ago)
Launch vehicle
Unknown
Launch site
Plesetsk Missile And Space Complex (PKMTR)
Object type
Payload
Rocket body
Debris
Shape & HBR
Unknown shape, 0.1 m
Radar Cross Section
Medium (>0.1 m² and <1 m²)

Expand to show TLE details & history
Last TLE update: 2 days ago

TLE from 2 days ago
0 SL-14 DEB
1 45294U 91056AG  26204.72831120  .00000699  00000-0  16644-2 0  9990
2 45294  82.5662 110.1451 0018476   5.5077 354.6248 13.21633026308592
Epoch: 2026-07-23T17:28Z
TLE epoch observation values (Epoch: 2026-07-23T17:28:46.087Z)
Latitude
-0°
Longitude
-93.51206°
Altitude
1,167.401 km
Speed
7.276 km/s
True Right ascension
07h 20m 34s
True Declination
0° 00' 00"
Sunlit
Object was in daylight at epoch
Visualization orbit readout
Latitude
Unknown
Longitude
Unknown
Altitude
Unknown
Speed
Unknown
Apparent Right ascension
Unknown
Apparent Declination
Unknown
Sunlit
N/A
Visualization observer readout
Local Sidereal Time
16:15:07
Azimuth
Unknown
Elevation
Unknown
Doppler factor
Unknown
Orbital elements
Apogee altitude
1,189.683 km
Perigee altitude
1,161.77 km
Semi-major axis
7,553.863 km
Eccentricity
0.00185
Inclination
82.5662°
RAAN
110.1451°
Arg. of periapsis
5.5077°
True anomaly
354.60492°
Mean anomaly
354.6248°
Eccentric anomaly
354.61487°
Mean motion
3.3059 °/min
Orbital period
108.9 mins
BSTAR
0.0016644
Loading maneuver chart data...
Computing Atmospheric mass density...
Loading historical data...
Loading historical data...
Loading historical data...
Loading historical data...
Loading historical data...
Loading historical data...
Loading historical data...

Documentation

Showing up to 5 results
|